Theta_e
287 287 286 286 286 285 285 285 285 284 284 283 282 281 281 281 281 280 279 279 279 279 279 278 278 278 278 278 278 277 277 277 278 277 278 278 278 278 278 278 278 278
287 287 286 285 285 285 285 285 284 284 284 283 282 281 281 281 280 280 279 278 278 278 278 278 278 278 278 278 278 277 277 277 277 277 277 278 278 278 278 278 278 278
287 287 286 285 285 285 284 284 284 283 283 283 282 281 281 280 280 279 279 278 278 278 278 278 278 278 278 278 278 277 277 277 277 277 277 277 277 277 278 278 278 278
287 286 286 285 284 284 283 283 283 283 282 283 282 281 280 280 280 279 279 278 277 277 277 277 277 277 278 278 278 277 277 277 277 277 277 277 277 277 277 277 277 277
286 285 285 285 284 283 283 282 282 282 282 282 282 281 280 280 279 279 279 278 277 277 277 277 277 277 277 277 277 277 277 277 277 277 277 277 277 277 277 277 277 277
287 285 284 284 283 282 282 282 282 281 281 281 281 280 280 279 279 279 278 278 277 276 276 276 276 277 277 277 277 277 277 277 277 277 277 277 277 277 277 277 277 277
288 286 284 284 283 282 281 281 281 281 280 280 280 280 280 279 279 278 278 278 277 276 275 275 275 276 276 276 276 276 277 277 277 277 277 277 277 277 277 277 277 277
287 286 285 284 283 282 281 281 280 280 280 280 279 279 279 279 279 278 277 277 276 276 275 275 275 275 275 275 275 276 276 276 277 277 277 277 277 277 277 277 277 277
287 286 284 283 282 282 281 281 280 280 279 279 279 279 279 278 278 278 277 276 276 275 275 274 274 274 274 274 274 275 276 276 276 277 277 276 276 276 276 276 276 276
286 285 284 282 282 281 281 281 280 279 279 279 279 278 278 278 278 278 277 276 275 275 274 274 273 273 273 273 274 275 275 276 276 276 276 276 276 276 276 276 276 276
284 284 283 282 282 281 281 280 279 279 278 278 278 278 278 278 278 278 277 276 275 275 274 273 273 273 273 273 274 274 275 275 276 276 276 276 275 275 275 276 276 276
283 283 283 282 281 280 280 279 279 278 278 277 277 278 278 278 278 278 277 276 275 274 274 273 273 272 272 273 273 273 274 275 275 275 275 275 275 275 275 275 276 276
283 283 283 282 281 280 279 279 278 278 277 277 277 277 277 277 278 278 277 276 275 274 273 273 272 272 272 272 272 273 273 274 275 275 275 275 275 275 275 275 276 276
283 282 282 282 281 280 278 278 278 277 277 276 276 276 277 277 277 278 277 276 275 274 273 272 272 272 271 272 272 273 273 274 274 274 274 274 274 274 275 275 275 276
283 282 281 281 281 280 278 278 277 277 276 276 275 275 276 276 277 277 276 276 275 274 273 272 271 271 271 272 272 272 273 273 274 274 274 273 273 274 274 274 275 276
283 282 281 280 280 280 279 277 277 276 276 275 275 275 275 276 276 277 276 276 275 274 273 272 271 271 272 272 272 272 273 273 273 273 273 273 273 273 273 274 275 276
282 281 280 280 279 279 279 277 276 276 275 275 274 274 275 275 276 276 276 276 275 274 273 272 271 272 272 271 271 271 271 272 273 273 273 273 273 273 273 274 274 275
282 281 280 279 279 279 278 277 276 275 274 274 274 274 274 275 276 276 276 275 274 274 273 272 271 272 271 271 271 270 270 270 272 272 273 273 273 272 273 273 274 275
281 280 280 279 278 278 278 277 276 275 274 274 274 274 274 274 275 276 276 275 274 274 274 273 272 272 271 270 270 270 269 269 269 270 271 272 272 272 272 273 274 275
281 280 279 278 278 277 277 277 276 275 274 274 273 273 273 274 275 275 275 275 274 274 273 273 272 272 271 270 270 269 269 269 269 269 270 270 271 271 272 273 273 274
280 279 279 278 277 276 276 276 276 275 274 273 273 273 273 273 274 275 275 275 274 273 273 272 273 272 270 270 270 269 269 269 269 269 269 269 270 270 271 272 273 274
279 279 278 277 276 276 276 276 276 275 274 273 273 273 272 273 274 275 275 274 274 273 272 272 272 272 271 270 270 269 269 268 268 269 269 269 269 269 270 271 272 274
279 278 278 277 276 275 275 275 275 275 274 273 272 272 272 272 274 274 274 274 273 273 272 272 272 272 271 271 270 269 268 268 268 269 269 269 269 269 269 270 272 274
278 277 277 276 275 275 275 275 275 274 274 273 272 272 272 272 273 274 274 273 273 273 272 272 272 272 271 271 270 269 268 268 268 268 269 269 269 269 270 271 272 274
277 276 276 276 275 274 274 274 274 274 273 273 272 272 271 272 273 273 273 273 273 272 272 272 272 272 272 271 270 270 269 268 268 268 269 269 270 270 271 271 272 274
275 274 274 274 274 273 273 274 274 273 273 272 272 271 271 272 272 273 272 272 273 273 272 272 272 272 272 271 270 270 269 268 268 268 269 269 270 271 271 271 272 273
Wind_Speed
46 49 52 54 56 55 52 50 47 44 42 40 37 35 34 33 31 31 32 33 32 31 30 30 29 28 27 26 25 25 24 24 23 22 21 20 18 18 17 17 16 16
44 47 50 53 55 56 55 53 50 45 43 41 38 36 35 34 32 32 33 34 33 32 32 31 30 29 28 28 27 26 26 25 24 23 22 20 19 18 18 17 17 17
45 46 49 51 53 55 56 55 52 47 44 42 40 37 36 34 33 33 33 34 34 34 33 32 32 31 30 29 28 28 27 26 25 24 23 22 20 19 19 18 18 18
46 47 49 50 52 54 56 57 55 50 46 44 41 38 36 34 33 32 33 35 35 35 35 34 33 32 31 30 30 29 29 28 27 25 24 23 21 20 19 19 19 19
45 47 49 50 51 53 55 57 57 52 48 46 42 38 36 35 34 32 32 34 36 36 36 35 34 33 32 31 31 30 30 29 28 27 26 25 23 22 21 20 20 20
44 45 47 49 51 52 54 56 57 54 51 48 44 39 36 35 35 33 32 33 35 36 36 36 35 34 33 32 31 31 31 30 29 28 27 26 25 24 23 22 22 21
44 43 44 46 48 51 53 54 56 56 53 49 45 40 37 36 35 33 32 33 34 36 36 36 36 35 34 33 33 32 32 31 31 29 28 28 26 25 25 24 23 23
45 43 43 44 45 48 51 52 54 55 55 51 47 42 38 36 35 34 33 32 34 36 36 36 36 35 34 34 34 34 33 33 32 31 29 29 28 27 26 26 25 25
48 46 44 44 45 46 49 50 51 53 55 53 48 43 40 37 35 34 33 33 34 35 36 37 36 35 35 35 35 35 34 34 33 32 31 30 29 29 27 26 26 26
50 47 45 44 45 46 47 49 51 52 54 54 50 45 42 38 35 34 34 33 34 35 36 37 37 36 36 36 36 36 35 35 34 34 32 30 29 29 28 26 26 27
50 48 45 43 44 45 46 48 50 51 53 53 51 47 43 39 35 34 34 34 34 35 36 37 37 37 36 36 36 36 36 35 35 34 33 31 30 30 30 28 28 28
50 50 46 43 41 43 45 46 48 50 52 53 52 48 44 39 36 35 35 35 35 35 36 37 37 37 37 36 36 36 36 35 35 35 33 32 31 30 30 30 29 29
50 51 49 45 41 40 43 44 46 48 50 52 52 49 45 40 37 35 35 35 35 35 36 36 37 37 37 37 36 36 36 36 35 34 33 31 30 30 30 30 29 29
49 52 51 48 43 40 42 44 44 46 48 50 51 50 46 40 37 36 35 35 35 35 36 36 36 37 37 37 36 36 35 35 34 33 32 30 30 30 30 29 29 29
48 51 52 50 45 42 41 43 43 43 46 48 49 49 47 41 37 36 35 35 36 35 36 36 36 37 37 37 36 35 34 34 33 31 29 29 29 30 30 30 29 29
48 52 52 51 48 44 41 41 42 42 44 46 47 48 46 41 38 37 36 36 36 35 36 36 36 36 36 35 34 33 33 32 30 28 27 28 29 29 30 30 29 29
48 51 53 53 50 45 41 39 39 41 42 43 45 46 45 42 39 37 37 36 36 35 35 36 35 35 34 33 32 31 30 30 29 27 26 27 28 29 30 29 29 28
48 50 52 54 51 46 42 38 37 39 41 41 43 45 45 42 39 38 37 36 35 34 34 34 35 34 32 31 30 29 27 27 28 27 26 27 28 28 29 29 28 28
48 49 52 53 52 48 43 38 36 37 39 40 40 42 43 42 39 37 37 36 34 34 33 33 33 32 30 29 28 27 25 24 26 28 28 27 27 27 27 28 28 28
44 49 51 52 52 50 45 40 37 36 36 37 38 40 42 42 38 37 37 35 34 33 31 31 31 29 27 27 26 26 25 24 25 28 30 30 29 27 26 26 27 28
43 47 50 50 50 49 45 41 38 36 35 36 37 39 42 41 37 37 37 35 32 31 30 29 29 27 25 25 25 25 25 24 25 27 29 30 29 28 26 25 25 26
44 45 48 48 49 47 45 42 40 37 35 35 36 39 41 40 37 37 37 34 31 30 29 28 27 25 24 24 24 24 23 24 26 28 29 29 28 26 25 25 24 23
41 44 48 48 48 47 45 43 41 38 36 35 36 39 40 39 36 36 35 32 30 29 28 27 27 25 23 23 23 23 23 24 26 28 29 30 29 27 27 27 25 23
41 46 48 49 50 50 47 43 40 37 36 35 36 38 38 37 36 35 34 31 29 29 27 27 27 25 22 22 23 24 24 26 27 28 29 29 28 27 27 27 25 23
48 50 52 54 54 53 48 41 38 36 34 34 35 36 36 35 34 34 32 29 29 29 27 26 26 24 21 21 23 24 24 26 27 27 27 27 24 23 23 25 25 24
55 56 58 59 57 53 46 38 35 34 33 33 34 34 34 34 34 33 31 29 29 28 26 24 25 23 20 21 23 24 25 26 26 27 27 25 23 21 21 23 26 25
Wind_Direction
292 285 280 277 274 272 270 269 271 275 278 281 281 279 276 275 272 263 257 254 252 251 251 251 251 252 252 252 252 251 252 253 254 254 255 257 258 258 259 260 259 259
298 291 285 279 276 273 270 268 269 272 276 279 279 277 274 273 272 266 258 254 252 250 250 250 250 250 250 250 251 251 250 250 251 252 253 255 256 258 259 260 260 259
303 297 290 285 280 275 271 268 267 269 272 275 276 276 274 273 271 268 262 256 253 251 250 249 249 249 249 249 249 249 249 249 249 250 251 252 253 255 259 261 262 261
307 301 296 290 284 278 272 268 266 267 269 272 274 275 274 272 270 269 265 259 255 253 250 249 249 249 248 248 248 249 249 249 249 248 249 250 251 253 256 259 261 262
311 305 299 294 288 281 274 269 266 265 267 270 271 273 274 272 270 269 266 262 258 255 252 250 249 249 248 248 248 249 250 250 249 248 248 249 251 253 255 256 258 261
316 310 303 298 292 285 278 273 268 265 265 268 269 271 273 272 270 270 268 263 259 256 254 252 250 249 248 248 247 248 249 249 250 250 250 250 251 253 256 256 257 259
322 315 308 301 294 287 281 276 271 265 263 265 267 268 271 271 271 270 269 266 261 258 256 254 252 250 249 248 247 247 248 249 249 250 250 251 252 253 255 257 258 258
325 317 310 303 297 290 284 279 273 267 264 263 265 267 269 271 271 270 269 267 263 259 256 255 253 251 250 248 248 248 249 249 250 250 250 251 252 253 255 257 258 258
329 322 314 306 299 293 287 282 276 270 265 262 263 265 267 269 270 270 270 267 264 260 256 255 252 251 249 249 249 250 251 251 252 252 251 250 251 253 254 254 255 256
333 328 320 310 302 297 291 285 279 273 266 262 261 262 265 267 269 271 270 268 265 261 257 254 252 251 250 250 250 251 252 253 253 253 253 252 252 252 253 252 252 255
335 331 324 315 307 301 295 288 282 276 269 263 259 259 262 265 268 270 269 268 267 263 258 255 253 252 251 251 252 253 253 254 254 254 253 252 251 251 252 252 253 255
337 334 327 319 311 303 297 291 284 278 271 265 259 258 259 262 266 268 268 267 267 264 260 256 254 253 253 253 253 253 254 254 254 254 254 252 251 251 251 252 252 254
335 335 332 324 315 306 299 293 286 280 273 267 261 258 257 260 264 267 268 267 267 265 262 258 255 253 253 253 252 252 253 253 254 254 255 254 253 252 251 250 250 251
330 333 334 329 320 309 299 293 287 281 275 269 263 258 257 259 263 267 268 267 267 265 263 259 255 253 252 252 252 251 252 253 253 254 255 256 255 253 252 250 249 249
327 330 334 333 326 315 303 295 289 283 276 269 263 259 256 258 263 267 267 267 267 265 263 260 256 253 252 251 251 251 251 252 254 254 254 254 253 253 252 250 248 247
326 328 332 333 329 321 310 299 290 283 276 270 264 259 256 257 262 266 267 267 266 265 262 259 256 253 251 251 252 252 253 253 253 253 253 251 250 250 250 249 247 245
326 327 329 331 330 324 315 304 292 284 276 270 264 259 255 255 260 265 267 267 266 265 262 259 257 254 253 253 253 253 255 256 254 251 249 248 249 248 248 248 246 243
324 325 326 328 328 325 319 308 295 284 276 270 265 260 255 254 259 264 267 268 266 264 261 259 258 256 255 254 252 251 252 255 257 255 250 246 246 247 247 245 243 240
322 325 325 325 326 324 320 311 297 284 276 271 266 261 256 254 258 264 266 267 265 263 261 259 258 257 255 253 251 250 248 246 250 256 256 252 249 246 245 243 241 238
321 324 324 324 324 322 318 312 300 286 277 272 267 261 256 253 257 263 266 266 265 263 261 259 258 256 254 251 249 248 246 241 242 248 254 257 256 252 247 242 238 237
320 321 323 323 323 321 317 312 303 290 279 272 266 261 255 253 257 263 266 266 264 263 261 258 257 255 253 251 248 245 243 241 239 241 246 251 255 255 252 244 237 234
318 319 321 323 324 321 315 311 306 295 282 272 266 260 255 253 256 262 265 265 263 261 259 258 258 256 252 250 247 244 241 239 238 238 239 241 244 246 247 245 239 232
315 317 320 322 324 321 314 310 307 298 284 273 265 259 255 253 256 262 264 264 262 260 259 259 259 256 252 248 244 241 239 237 236 236 236 237 237 236 238 242 239 231
314 316 319 321 323 321 316 309 304 297 285 274 265 260 257 255 258 262 264 262 261 259 258 258 259 257 252 247 242 236 232 231 233 234 235 236 236 236 237 239 237 231
316 317 318 320 320 319 315 308 302 296 286 273 266 261 257 256 258 261 261 259 258 257 256 257 259 258 252 244 240 233 227 227 229 231 233 233 232 233 234 236 236 232
319 319 318 318 317 316 312 305 299 294 283 271 265 260 256 254 256 258 257 256 257 257 257 257 258 260 254 244 238 230 222 222 225 226 228 228 226 226 227 231 235 232